Regional Weather Roundup
Issued by NWS

Home | Current Version | Previous Version | Text Only | Print | Product List | Glossary On
Versions: 1 2 3 4 5 6 7 8 9 10 11 12 13 14 15 16 17 18 19 20 21 22 23 24 25 26 27 28 29 30 31 32 33 34 35 36 37 38 39 40 41 42 43 44 45 46 47 48 49 50
000
ASUS43 KMPX 242301
RWRMN
WEATHER ROUNDUP FOR MINNESOTA
NATIONAL WEATHER SERVICE TWIN CITIES/CHANHASSEN MN
600 PM CDT SUN MAY 24 2015


NOTE: "FAIR" INDICATES FEW OR NO CLOUDS BELOW 12,000 FEET WITH NO
SIGNIFICANT WEATHER AND/OR OBSTRUCTIONS TO VISIBILITY. N/A MEANS
CURRENT SKY AND/OR WEATHER CONDITIONS ARE NOT AVAILABLE.

MNZ060>063-068>070-250000-
   Twin Cities Metro

CITY           SKY/WX    TMP DP  RH WIND       PRES   REMARKS
TWIN CITIES    LGT RAIN  60  58  92 E10       29.90F FOG
ST PAUL        LGT RAIN  59  58  96 E9        29.91F FOG
CRYSTAL        LGT RAIN  61  58  90 E6        29.89F FOG
BLAINE         LGT RAIN  61  61 100 E8        29.91F
LAKEVILLE      DRIZZLE   57  57 100 E13       29.88F
EDEN PRAIRIE   LGT RAIN  60  58  92 E7        29.88F FOG
SOUTH ST PAUL  DRIZZLE   60  58  95 E5        29.90F
LAKE ELMO      LGT RAIN  59  59 100 E6        29.92S
$$
MNZ001>005-007-008-013>017-022>024-027-028-250000-
   Northwest Minnesota

CITY           SKY/WX    TMP DP  RH WIND       PRES   REMARKS
BEMIDJI        CLOUDY    70  48  45 E7        29.95F
HALLOCK        CLOUDY    77  39  25 E5        29.92F
ROSEAU         CLOUDY    79  43  27 E8        29.93F
WARROAD        CLOUDY    73  48  40 NE3       29.94F
THIEF RVR FALL CLOUDY    73  46  38 SE5       29.94S
CROOKSTON      CLOUDY    75  48  38 SE9       29.93S
FOSSTON        CLOUDY    70  46  43 E5        29.95S
DETROIT LAKES  CLOUDY    68  50  52 SE8       29.95R
MOORHEAD       CLOUDY    70  52  52 SE9       29.92S
PARK RAPIDS    CLOUDY    70  47  43 E12       29.94S
MAHNOMEN       CLOUDY    70  49  46 SE7       29.93F
$$
MNZ006-009>011-018-025>026-250000-
   North Central Minnesota

CITY           SKY/WX    TMP DP  RH WIND       PRES   REMARKS
BAUDETTE       CLOUDY    74  46  36 N7        29.93F
FLAG ISLAND    CLOUDY    66  52  59 S5        29.92F
INTL FALLS     CLOUDY    75  41  29 NE6       29.93F
WASKISH        CLOUDY    70  54  56 CALM      29.94F
BIG FORK       CLOUDY    73  48  40 S7        29.95F
LONGVILLE      CLOUDY    68  48  49 SE7       29.96S
GRAND RAPIDS   CLOUDY    66  48  52 SE5       29.97F
CRANE LAKE     CLOUDY    73  37  27 CALM      29.95S
ORR            CLOUDY    75  39  27 CALM      29.92F
COOK           CLOUDY    72  46  40 S10       29.96S
WALKER         MOCLDY    69  49  49 SE6       29.94F
$$
MNZ012-019>021-037-250000-
   Northeast Minnesota

CITY           SKY/WX    TMP DP  RH WIND       PRES   REMARKS
DULUTH         CLOUDY    65  44  46 S10       29.97S
ELY            CLOUDY    75  43  31 S10       29.95S
HIBBING        CLOUDY    69  47  45 S6        29.96F
EVELETH        CLOUDY    68  46  45 S3        29.98F
DULUTH HARBOR  CLOUDY    68  48  49 CALM      29.96F
TWO HARBORS    CLOUDY    73  55  53 CALM      29.94F
GRAND MARAIS     N/A     58  43  57 SW3       29.95F
G MARAIS ARPRT CLOUDY    66  37  34 SW3       30.00F
$$
MNZ029>031-032-039>041-046>048-054>057-064-250000-
   West Central Minnesota

CITY           SKY/WX    TMP DP  RH WIND       PRES   REMARKS
FERGUS FALLS   CLOUDY    64  54  68 SE9       29.92F
WHEATON        RAIN      59  55  88 E13       29.92F
MORRIS         DRIZZLE   61  57  88 E13       29.88F
ALEXANDRIA     CLOUDY    60  56  86 E15       29.92F FOG
ELBOW LAKE     RAIN      60  57  91 E7        29.91F
WADENA         CLOUDY    64  52  63 SE10      29.94S
APPLETON       RAIN      61  57  88 E10       29.87S
BENSON         CLOUDY    61  55  82 E10       29.88F
ORTONVILLE     DRIZZLE   59  55  88 E10       29.88S
MADISON        CLOUDY    61  57  88 E12         N/A
WILLMAR        LGT RAIN  61  59  94 E15       29.89F
$$
MNZ033>034-036-042>043-049>051-058-059-250000-
   Central Minnesota

CITY           SKY/WX    TMP DP  RH WIND       PRES   REMARKS
ST CLOUD       LGT RAIN  59  57  93 E8        29.91F FOG
SAUK CENTRE    LGT RAIN  59  56  91 E10G18    29.91F
PAYNESVILLE    LGT RAIN  56  56  98 N8        29.90F
AITKIN         CLOUDY    66  52  59 SE9       29.95S
PINE RIVER     CLOUDY    66  52  59 SE8       29.98F
BRAINERD       CLOUDY    62  53  72 SE6       29.96F
STAPLES        DRIZZLE   63  52  67 SE5       29.95S
LONG PRAIRIE   DRIZZLE   59  55  88 NE8       29.93F
LITTLE FALLS   DRIZZLE   59  55  88 NE5       29.94F
LITCHFIELD     DRIZZLE   59  59 100 E12G17    29.89F
BUFFALO        LGT RAIN  59  56  91 NE9       29.90F
MAPLE LAKE     DRIZZLE   60  59  96 NE9       29.91F
$$
MNZ037-044-045-052-053-250000-
   East Central Minnesota

CITY           SKY/WX    TMP DP  RH WIND       PRES   REMARKS
PRINCETON      LGT RAIN  61  57  88 NE8       29.92F
MORA           LGT RAIN  57  54  88 E6        29.96F
CAMBRIDGE      HVY RAIN  63  54  72 CALM      29.91F
RUSH CITY      LGT RAIN  60  58  92 NE6       29.94F
MOOSE LAKE     CLOUDY    63  54  72 SE3       29.96S
HINCKLEY       LGT RAIN  61  59  94 E3        29.96F
CLOQUET        CLOUDY    66  48  52 SE3       29.97F
MCGREGOR       CLOUDY    64  52  63 SE8       29.96F
$$
MNZ071>073-080-081-089-090-097-098-250000-
   Southwest Minnesota

CITY           SKY/WX    TMP DP  RH WIND       PRES   REMARKS
MONTEVIDEO     DRIZZLE   61  61 100 SE13      29.87S
GRANITE FALLS  DRIZZLE   59  57  94 NE12      29.87S
CANBY          CLOUDY    60  58  95 E12       29.87S FOG
MARSHALL       CLOUDY    59  54  82 E13       29.84S
REDWOOD FALLS  LGT RAIN  60  59  96 E9        29.84F FOG
OLIVIA         LGT RAIN  57  54  88 E13       29.85F
PIPESTONE      CLOUDY    61  57  88 E8        29.82F
WINDOM         DRIZZLE   61  57  88 E9        29.82S
WORTHINGTON    CLOUDY    61  57  88 E12       29.81F
JACKSON        CLOUDY    61  59  94 E8        29.81F FOG
TRACY          DRIZZLE   60  59  97 E13       29.84F
SLAYTON        DRIZZLE   59  59 100 E10       29.84S
$$
MNZ065>067-074>077-082>085-091>093-250000-
   South Central Minnesota

CITY           SKY/WX    TMP DP  RH WIND       PRES   REMARKS
MANKATO        CLOUDY    61  57  88 E13       29.85F
NEW ULM        DRIZZLE   59  59 100 E13       29.84F
ST JAMES       HVY RAIN  61  61 100 E10       29.83F
FAIRMONT       CLOUDY    61  55  82 E9        29.81F
GLENCOE        LGT RAIN  60  60  99 E12G17    29.87F
FARIBAULT      DRIZZLE   59  57  94 E9        29.87F
OWATONNA       DRIZZLE   61  57  88 E8        29.86F
WASECA         LGT RAIN  59  57  94 E10       29.86F
ALBERT LEA     DRIZZLE   61  61 100 SE8       29.83F
$$
MNZ078>079-086>088-094>096-250000-
   Southeast Minnesota

CITY           SKY/WX    TMP DP  RH WIND       PRES   REMARKS
ROCHESTER      LGT RAIN  58  57  97 E12       29.88F FOG
RED WING       LGT RAIN  61  57  88 E9        29.89F
STANTON        DRIZZLE   60  57  90 E9        29.87F
DODGE CENTER   DRIZZLE   59  57  94 E12       29.86F
WINONA         DRIZZLE   59  57  94 SE9       29.90S
AUSTIN         DRIZZLE   59  57  94 SE10      29.84F
PRESTON        DRIZZLE   58  56  95 SE9       29.88F
$$
ABBREVIATIONS USED IN REMARKS
   TC - TEMPERATURES IN CELSIUS
  WCI - WIND CHILL INDEX
   HX - HEAT INDEX
  VSB - VISIBILITY
$$



USA.gov is the U.S. government's official web portal to all federal, state and local government web resources and services.